Regional Weather Roundup
Issued by NWS Upton, NY

Current Version | Previous Version | Graphics & Text | Print | Product List | Glossary Off
Versions: 1 2 3 4 5 6 7 8 9 10 11 12 13 14 15 16 17 18 19 20 21 22 23 24 25 26 27 28 29

000
ASUS41 KOKX 300205
RWROKX

REGIONAL WEATHER ROUNDUP
NATIONAL WEATHER SERVICE NEW YORK NY
1000 PM EDT WED OCT 29 2014

NOTE: "FAIR" INDICATES FEW OR NO CLOUDS BELOW 12,000 FEET WITH NO
SIGNIFICANT WEATHER AND/OR OBSTRUCTIONS TO VISIBILITY.

NYZ071-072-176-178-NJZ106-104-300300-
NEW YORK CITY METRO AREA


CITY           SKY/WX    TMP DP  RH WIND       PRES   REMARKS
CENTRAL PARK   CLOUDY    54  47  77 W9        29.97R
LAGUARDIA APRT CLOUDY    55  47  74 NW13      29.94R
KENNEDY INTL   CLOUDY    55  48  77 W10       29.94R
NEWARK/LIBERTY CLOUDY    52  49  89 W8        29.95R
BRNX BOT. GARD   N/A     52  46  82 W5        29.94F
TETERBORO      CLOUDY    52  47  83 W7        29.93S
$$

NYZ177-179-078>081-300300-
LONG ISLAND NEW YORK

CITY           SKY/WX    TMP DP  RH WIND       PRES   REMARKS
FARMINGDALE    CLOUDY    54  48  80 NW6       29.93R
ISLIP          CLOUDY    53  49  86 W8        29.90R
SHIRLEY        LGT RAIN  54  50  86 NW6       29.92R
WESTHAMPTON    CLOUDY    57  48  72 NW10      29.92R
MONTAUK POINT    N/A     57  52  83 NW12      29.91R
$$

NYZ052-065-067-300300-
HUDSON VALLEY

CITY           SKY/WX    TMP DP  RH WIND       PRES   REMARKS
WHITE PLAINS   CLOUDY    51  48  89 W7        29.92R
NEWBURGH       PTCLDY    48  48 100 W7        29.93S
MONTGOMERY     PTCLDY    49  45  86 W6        29.93R
POUGHKEEPSIE   FOG       47  45  93 CALM      29.93S VSB 1/4
ALBANY         MOCLDY    47  42  83 CALM      29.93S
$$

NJZ001-105-106-008-010-013-015-019>022-104-300300-
NEW JERSEY

CITY           SKY/WX    TMP DP  RH WIND       PRES   REMARKS
NEWARK/LIBERTY CLOUDY    52  49  89 W8        29.95R
TETERBORO      CLOUDY    52  47  83 W7        29.93S
CALDWELL       MOCLDY    49  46  90 CALM      29.96R
MORRISTOWN     CLOUDY    50  48  93 NW7       29.96R
SOMERVILLE     FOG       46  44  93 CALM      29.95R VSB 1/2
SUSSEX         FOG       48  45  89 CALM      29.96R VSB 1/4
ANDOVER          N/A     44  43  96 CALM      29.96R
TRENTON        MOCLDY    50  48  93 W6        29.96R
MILLVILLE      CLOUDY    54  48  80 NW5       29.98R
ATLANTIC CITY  CLOUDY    54  46  74 NW8       29.97R
WRIGHTSTOWN    CLOUDY    52  48  86 NW6       29.95R
TOMS RIVER     CLOUDY    54  46  76 W3        29.97R
BELMAR         CLOUDY    54  43  66 W8        29.95R
$$

PAZ047>061-062-071-300300-
EASTERN PENNSYLVANIA

CITY           SKY/WX    TMP DP  RH WIND       PRES   REMARKS
PHILADELPHIA   CLOUDY    54  49  83 W9        29.98R
ALLENTOWN      FOG       50  46  87 CALM      29.97R VSB 1/2
SCRANTON       CLOUDY    50  47  89 SW3       29.95R
$$

CTZ002-004>006-009-010-012-RIZ004-006-007-MAZ004-011-015-300300-
SOUTHERN NEW ENGLAND
 IN CT

CITY           SKY/WX    TMP DP  RH WIND       PRES   REMARKS
BRADLEY INTL   CLOUDY    51  44  77 NW6       29.90R
HARTFORD       CLOUDY    54  44  69 NW5       29.91R
DANBURY        CLOUDY    49  45  86 CALM      29.94R
WTRBRY/OXFORD  CLOUDY    48  45  87 NW3       29.92R
BRIDGEPORT     CLOUDY    53  48  83 W9        29.92R
MERIDEN        CLOUDY    53  47  79 NW6       29.92R
NEW HAVEN      CLOUDY    55  48  77 NW7       29.92R
CHESTER        CLOUDY    52  50  93 NW7       29.91R
GROTON         CLOUDY    53  50  89 NW6       29.89R
WILLIMANTIC    CLOUDY    53  48  83 NW5       29.90R

 IN RI

CITY           SKY/WX    TMP DP  RH WIND       PRES   REMARKS
PROVIDENCE     LGT RAIN  54  49  83 NW7       29.90R
BLOCK ISLAND   CLOUDY    57  46  67 NW12G18   29.89R
WESTERLY       CLOUDY    53  50  89 NW5       29.90R

 IN MA

CITY           SKY/WX    TMP DP  RH WIND       PRES   REMARKS
BOSTON         LGT RAIN  54  48  80 W6        29.87S
WORCESTER      CLOUDY    48  46  93 W9        29.88R
WESTFIELD      CLOUDY    50  43  77 W6        29.90R
PROVINCETOWN   CLOUDY    57   3  11 NW18G26   29.85R
NANTUCKET      CLOUDY    61  59  93 SW10      29.82F FOG
$$

ANZ330-335-338-340-345-350-353-355-300300-
COASTAL MARINE OBSERVATIONS


STATION/POSITION TIME  SKY/WX   TEMP    WIND        PRES    VSBY  WAVE
                                AIR SEA DIR/SP/G                  HT/PER
                 (UTC)          (F)     (DEG/KT/KT) (MB)    (MI)  (FT/S)
NY HARB ENTRANCE 0200            56 61  290/ 16/ 17 1013.8          3/ 6
4S FIRE IS       0200               62                N/A           3/ 6
20S FIRE ISLAND  0200            57 62  320/ 14/ 17 1013.0          4/ 6
23SW MTP         0200                                 N/A           4/ 6
HUDSON CANYON    0200            62 65  310/ 16/ 17 1012.6          4/ 6
EXECUTION ROCKS  0200            55 60  290/ 12/ 16   N/A
WESTERN LI SOUND 0200            55     280/ 12/ 16   N/A           0
CENTRAL LI SOUND 0100            56 62  310/ 14/ 16   N/A           2/ 3
EASTERN LI SOUND 0100            56 62  320/ 12/ 14   N/A
ROBBINS REEF     0100            53     290/ 11/ 13 1012.7
$$


>>>>>>>>>>>>>>>>>>>>>>>>>>>> KEY <<<<<<<<<<<<<<<<<<<<<<<<<<<
>                                                          <
>     SKY/WX - SKY CONDITION/PRESENT WEATHER               <
>     TMP    - TEMPERATURE IN FAHRENHEIT                   <
>     DP     - DEWPOINT IN FAHRENHEIT                      <
>     RH     - RELATIVE HUMIDITY IN PERCENT                <
>     WIND   - DIRECTION AND SPEED IN MPH                  <
>     PRES   - MEAN SEA LEVEL PRESSURE IN INCHES OF HG     <
>     WCI    - WIND CHILL INDEX                            <
>     VSB    - VISIBILITY IN MILES                         <
>     HX     - HEAT INDEX                                  <
>     TC     - TEMPERATURE IN CELSIUS                      <
>     VRB    - VARIABLE WIND DIRECTION                     <
>                                                          <
>>>>>>>>>>>>>>>>>>>>>>>>>>>> KEY <<<<<<<<<<<<<<<<<<<<<<<<<<<





USA.gov is the U.S. government's official web portal to all federal, state and local government web resources and services.